Flag for France Weather past 2 weeks in Le Mans, France

Now
50 °F

Overcast.


Feels Like: 48 °F
Forecast: 37 / 49 °F
Wind: 6 mph from West

Location: Le Mans Airport

Current Time: Dec 20, 2014 at 2:58:06 PM

Latest Report: Dec 20, 2014 at 2:30 PM


Visibility: N/A

Pressure: 30.48 "Hg

Humidity: 71%

Dew point: 41 °F

Location of Le MansLocation

Historic Weather in Le Mans — Graph

°F

Le Mans temperature yesterday

Maximum temperature yesterday: 55 °F (at 3:30 PM)
Minimum temperature yesterday: 43 °F (at 10:30 PM)
Average temperature yesterday: 52 °F

Past Weeks' High & Low Weather Summary

 TemperatureHumidityPressure
High55 °F (Dec 12, 1:00 PM)100% (Dec 5, 7:30 PM)30.51 "Hg (Dec 5, 7:30 PM)
Low25 °F (Dec 7, 3:00 AM)57% (Dec 6, 2:30 PM)29.62 "Hg (Dec 12, 3:00 PM)
Average44 °F87%30.13 "Hg
* Reported Dec 5 1:00 PM — Dec 20 1:30 PM, Le Mans, Weather by CustomWeather, © 2014

Note: Actual official high and low records may vary slightly from our data, if they occured in-between our weather recording intervals... More about our weather records

Advertising

Le Mans weather history for previous 24 hours

 ConditionsComfort  
Time TempWeatherWind HumidityBarometerVisibility
1:30 PM
Dec 20
48 °FOvercast.7 mph76%30.48 "HgN/A
1:00 PM48 °FOvercast.8 mph76%30.48 "HgN/A
12:30 PM48 °FOvercast.6 mph76%30.48 "HgN/A
12:00 PM48 °FOvercast.7 mph76%30.48 "HgN/A
11:30 AM46 °FOvercast.6 mph76%30.51 "HgN/A
11:00 AM46 °FOvercast.3 mph76%30.48 "HgN/A
10:30 AM46 °FOvercast.3 mph82%30.48 "HgN/A
10:00 AM46 °FOvercast.2 mph76%30.45 "HgN/A
9:30 AM46 °FOvercast.5 mph76%30.45 "HgN/A
9:00 AM46 °FOvercast.3 mph76%30.45 "HgN/A
8:30 AM46 °FOvercast.5 mph76%30.45 "HgN/A
8:00 AM46 °FOvercast.3 mph76%30.45 "HgN/A
7:30 AM46 °FOvercast.3 mph76%30.45 "HgN/A
7:00 AM45 °FOvercast.2 mph87%30.45 "HgN/A
6:30 AM46 °FOvercast.3 mph82%30.42 "HgN/A
6:00 AM45 °FOvercast.3 mph87%30.42 "HgN/A
5:30 AM45 °FOvercast.1 mph87%30.42 "HgN/A
5:00 AM46 °FOvercast.1 mph82%30.42 "HgN/A
4:30 AM45 °FOvercast.3 mph87%30.42 "HgN/A
4:00 AM45 °FOvercast.2 mph87%30.42 "HgN/A
3:30 AM45 °FOvercast.2 mph87%30.42 "HgN/A
3:00 AM46 °FOvercast.2 mph82%30.42 "HgN/A
2:30 AM46 °FOvercast.3 mph82%30.42 "HgN/A
2:00 AM46 °FOvercast.2 mph82%30.42 "HgN/A
1:30 AM46 °FOvercast.2 mph76%30.39 "HgN/A
1:00 AM45 °FOvercast.3 mph87%30.39 "HgN/A
12:30 AM45 °FOvercast.No wind93%30.39 "HgN/A
12:00 AM45 °FOvercast.No wind93%30.39 "HgN/A
11:30 PM
Dec 19
43 °FOvercast.No wind100%30.39 "Hg4 mi
11:00 PM43 °FOvercast.2 mph93%30.39 "Hg4 mi
10:30 PM43 °FFog.No wind87%30.36 "Hg1 mi
10:00 PM45 °FClear.2 mph93%30.36 "HgN/A
9:30 PM46 °FClear.2 mph87%30.33 "HgN/A
9:00 PM48 °FMostly cloudy.3 mph87%30.33 "HgN/A
8:30 PM50 °FMostly cloudy.5 mph82%30.30 "HgN/A
8:00 PM50 °FOvercast.5 mph94%30.30 "HgN/A
7:30 PM50 °FMostly cloudy.6 mph88%30.30 "Hg6 mi
7:00 PM50 °FLight rain. Passing clouds.5 mph94%30.27 "Hg6 mi
6:30 PM52 °FLight rain. Fog.6 mph88%30.24 "Hg3 mi
6:00 PM52 °FDrizzle. Mostly cloudy.9 mph94%30.24 "Hg4 mi
5:30 PM55 °FLight rain. Fog.8 mph88%30.21 "Hg2 mi
5:00 PM55 °FOvercast.10 mph88%30.18 "HgN/A
4:30 PM55 °FOvercast.10 mph88%30.18 "HgN/A
4:00 PM55 °FLow clouds.9 mph88%30.18 "HgN/A
3:30 PM55 °FLow clouds.10 mph94%30.18 "HgN/A
3:00 PM54 °FDrizzle. Low clouds.10 mph100%30.18 "Hg4 mi
2:30 PM54 °FLow clouds.10 mph94%30.18 "Hg4 mi
2:00 PM54 °FLow clouds.10 mph94%30.18 "Hg6 mi
Weather by CustomWeather, © 2014

See weather overviewHow to use our weather pages